Location: Zagreb
(45.8000°N, 16.0000°E)
Time: 14:07:30
(UTC+02:00)

deb Explorer IX - All Passes

Search period start: 19 July 2024 00:00
Search period end: 29 July 2024 00:00
Orbit: 510 x 879 km, 38.7° (Epoch: 18 July)

Date Brightness Start Highest point End Pass type
(mag) Time Alt. Az. Time Alt. Az. Time Alt. Az.
19 Jul - 01:41:07 10° WSW 01:45:10 26° SSW 01:48:52 10° SE night (unlit)
19 Jul - 21:11:14 10° SSW 21:15:41 23° SSE 21:19:51 10° ESE visible
19 Jul - 22:54:10 10° WSW 22:59:13 37° S 23:03:49 10° ESE visible
20 Jul - 00:38:09 10° WSW 00:42:47 32° SSW 00:46:57 10° SE visible
20 Jul - 02:23:14 10° WSW 02:25:55 15° SSW 02:28:26 10° S night (unlit)
20 Jul - 20:09:23 10° SSW 20:13:10 18° SSE 20:16:48 10° ESE daylight
20 Jul - 21:51:29 10° SW 21:56:37 34° SSE 22:01:19 10° ESE visible
20 Jul - 23:35:13 10° WSW 23:40:14 38° S 23:44:46 10° ESE visible
21 Jul - 01:19:42 10° WSW 01:23:35 22° SSW 01:27:10 10° SSE visible
21 Jul - 19:08:21 10° S 19:10:40 12° SSE 19:12:55 10° ESE daylight
21 Jul - 20:48:57 10° SW 20:53:57 29° SSE 20:58:37 10° ESE daylight
21 Jul - 22:32:18 10° WSW 22:37:34 40° S 22:42:22 10° ESE visible
22 Jul - 00:16:30 10° WSW 00:21:06 29° SSW 00:25:18 10° SE visible
22 Jul - 02:02:31 10° SW 02:04:06 11° SW 02:05:38 10° SSW night (unlit)
22 Jul - 19:46:40 10° SSW 19:51:15 23° SSE 19:55:40 10° ESE daylight
22 Jul - 21:29:25 10° WSW 21:34:49 38° S 21:39:47 10° ESE visible
22 Jul - 23:13:22 10° WSW 23:18:27 36° S 23:23:05 10° SE visible
23 Jul - 00:58:11 10° WSW 01:01:42 18° SSW 01:05:00 10° SSE visible
23 Jul - 18:44:48 10° S 18:48:34 17° SSE 18:52:16 10° ESE daylight
23 Jul - 20:26:39 10° SW 20:31:59 34° SSE 20:37:01 10° ESE daylight
23 Jul - 22:10:16 10° WSW 22:15:39 40° S 22:20:37 10° ESE visible
23 Jul - 23:54:38 10° WSW 23:59:08 26° SSW 00:03:16 10° SSE visible
24 Jul - 17:44:03 10° SSE 17:45:54 11° SE 17:47:46 10° SE daylight
24 Jul - 19:24:02 10° SW 19:29:07 29° SSE 19:34:01 10° ESE daylight
24 Jul - 21:07:13 10° WSW 21:12:46 41° S 21:17:56 10° ESE visible
24 Jul - 22:51:18 10° WSW 22:56:24 33° SSW 23:01:04 10° SE visible
25 Jul - 00:36:40 10° WSW 00:39:32 15° SSW 00:42:15 10° S visible
25 Jul - 18:21:42 10° SSW 18:26:15 22° SSE 18:30:44 10° ESE daylight
25 Jul - 20:04:13 10° WSW 20:09:47 39° S 20:15:04 10° ESE daylight
25 Jul - 21:48:02 10° WSW 21:53:29 39° S 21:58:33 10° ESE visible
25 Jul - 23:32:39 10° WSW 23:36:52 22° SSW 23:40:49 10° SSE visible
26 Jul - 17:19:56 10° S 17:23:25 16° SSE 17:26:55 10° ESE daylight
26 Jul - 19:01:22 10° SW 19:06:45 34° SSE 19:12:00 10° ESE daylight
26 Jul - 20:44:49 10° WSW 20:50:28 42° S 20:55:47 10° ESE daylight
26 Jul - 22:29:03 10° WSW 22:34:03 29° SSW 22:38:41 10° SE visible
27 Jul - 00:15:33 10° SW 00:17:03 11° SW 00:18:31 10° SSW visible
27 Jul - 17:58:43 10° SSW 18:03:43 27° SSE 18:08:41 10° ESE daylight
27 Jul - 19:41:41 10° WSW 19:47:20 42° S 19:52:48 10° ESE daylight
27 Jul - 21:25:37 10° WSW 21:31:03 36° SSW 21:36:09 10° SE visible
27 Jul - 23:10:35 10° WSW 23:14:19 18° SSW 23:17:52 10° S visible
28 Jul - 16:56:26 10° SSW 17:00:43 21° SSE 17:05:02 10° ESE daylight
28 Jul - 18:38:37 10° SW 18:44:09 38° SSE 18:49:39 10° ESE daylight
28 Jul - 20:22:16 10° WSW 20:27:54 41° S 20:33:18 10° ESE daylight
28 Jul - 22:06:39 10° WSW 22:11:25 25° SSW 22:15:54 10° SSE visible
